QPF
0.00 0.00 0.01 0.01 0.01 0.00 0.00 0.00 0.00 0.00 0.01 0.01 0.01 0.01 0.02 0.03 0.03 0.03 0.03 0.02 0.02 0.03 0.03 0.04 0.04 0.03 0.02 0.03 0.04 0.06 0.06 0.05 0.04 0.03 0.04 0.04 0.05 0.05 0.06 0.05 0.03 0.02 0.02
0.00 0.00 0.00 0.00 0.00 0.01 0.01 0.00 0.00 0.00 0.01 0.01 0.02 0.02 0.02 0.03 0.04 0.03 0.03 0.02 0.02 0.02 0.03 0.04 0.05 0.03 0.02 0.03 0.03 0.04 0.05 0.07 0.06 0.04 0.03 0.04 0.04 0.05 0.06 0.05 0.04 0.03 0.02
0.00 0.00 0.00 0.00 0.00 0.00 0.01 0.01 0.01 0.01 0.01 0.01 0.02 0.02 0.02 0.02 0.03 0.05 0.03 0.03 0.03 0.03 0.03 0.04 0.04 0.04 0.03 0.03 0.03 0.03 0.03 0.04 0.06 0.07 0.04 0.04 0.04 0.04 0.04 0.05 0.05 0.04 0.03
0.00 0.00 0.00 0.00 0.00 0.00 0.01 0.01 0.01 0.01 0.01 0.02 0.02 0.03 0.03 0.03 0.02 0.04 0.05 0.03 0.03 0.03 0.03 0.03 0.04 0.04 0.04 0.03 0.03 0.03 0.02 0.03 0.04 0.05 0.05 0.04 0.04 0.04 0.04 0.04 0.05 0.05 0.04
0.00 0.01 0.01 0.00 0.00 0.00 0.01 0.01 0.01 0.01 0.02 0.02 0.02 0.03 0.03 0.02 0.03 0.03 0.05 0.04 0.03 0.02 0.03 0.03 0.03 0.04 0.04 0.03 0.03 0.03 0.03 0.03 0.04 0.04 0.03 0.03 0.03 0.04 0.05 0.05 0.04 0.06 0.06
0.00 0.01 0.01 0.01 0.01 0.01 0.01 0.01 0.01 0.01 0.01 0.02 0.02 0.03 0.03 0.03 0.03 0.03 0.04 0.05 0.04 0.03 0.03 0.03 0.02 0.02 0.03 0.03 0.03 0.03 0.03 0.03 0.04 0.05 0.04 0.03 0.03 0.05 0.06 0.09 0.09 0.07 0.07
0.00 0.01 0.01 0.01 0.01 0.01 0.01 0.01 0.01 0.02 0.01 0.02 0.02 0.02 0.04 0.05 0.04 0.05 0.04 0.04 0.04 0.04 0.04 0.04 0.03 0.02 0.02 0.02 0.02 0.02 0.02 0.03 0.03 0.04 0.05 0.05 0.04 0.05 0.06 0.11 0.13 0.11 0.09
0.00 0.01 0.01 0.01 0.01 0.01 0.01 0.01 0.01 0.01 0.02 0.02 0.02 0.02 0.03 0.04 0.05 0.05 0.05 0.04 0.03 0.04 0.04 0.04 0.03 0.02 0.02 0.02 0.02 0.02 0.02 0.02 0.03 0.03 0.03 0.04 0.05 0.04 0.06 0.08 0.09 0.10 0.11
0.01 0.01 0.01 0.01 0.01 0.01 0.01 0.01 0.01 0.01 0.02 0.02 0.02 0.02 0.03 0.03 0.04 0.05 0.06 0.05 0.04 0.03 0.03 0.03 0.03 0.02 0.02 0.02 0.01 0.01 0.01 0.01 0.01 0.02 0.02 0.03 0.03 0.04 0.05 0.06 0.07 0.08 0.10
0.01 0.01 0.01 0.01 0.01 0.01 0.01 0.01 0.01 0.01 0.01 0.02 0.02 0.02 0.03 0.03 0.03 0.05 0.06 0.05 0.05 0.04 0.02 0.02 0.02 0.02 0.02 0.02 0.01 0.01 0.01 0.01 0.01 0.01 0.02 0.02 0.03 0.03 0.04 0.04 0.05 0.07 0.09
0.01 0.01 0.01 0.01 0.01 0.01 0.01 0.01 0.01 0.01 0.01 0.01 0.02 0.02 0.03 0.03 0.02 0.03 0.05 0.05 0.04 0.03 0.03 0.02 0.02 0.02 0.02 0.01 0.01 0.01 0.01 0.01 0.01 0.01 0.01 0.02 0.02 0.03 0.04 0.04 0.04 0.04 0.07
0.02 0.01 0.02 0.02 0.02 0.01 0.01 0.01 0.01 0.01 0.01 0.01 0.01 0.02 0.02 0.03 0.02 0.03 0.04 0.04 0.04 0.03 0.03 0.02 0.02 0.02 0.01 0.01 0.01 0.01 0.01 0.01 0.01 0.01 0.01 0.01 0.02 0.02 0.03 0.05 0.06 0.06 0.06
0.02 0.02 0.02 0.02 0.02 0.02 0.01 0.01 0.01 0.01 0.01 0.01 0.01 0.02 0.02 0.02 0.02 0.02 0.03 0.03 0.03 0.02 0.03 0.02 0.02 0.02 0.01 0.01 0.01 0.01 0.01 0.01 0.01 0.01 0.01 0.01 0.02 0.02 0.02 0.04 0.08 0.10 0.08
0.04 0.03 0.03 0.02 0.02 0.02 0.02 0.01 0.01 0.01 0.00 0.01 0.01 0.01 0.02 0.02 0.02 0.02 0.02 0.03 0.03 0.02 0.03 0.03 0.02 0.01 0.01 0.01 0.02 0.02 0.01 0.01 0.01 0.01 0.01 0.01 0.01 0.01 0.02 0.02 0.04 0.08 0.10
0.04 0.03 0.04 0.03 0.03 0.02 0.02 0.01 0.01 0.01 0.01 0.00 0.01 0.01 0.01 0.02 0.02 0.02 0.02 0.03 0.03 0.03 0.02 0.03 0.03 0.02 0.01 0.01 0.02 0.01 0.01 0.01 0.01 0.01 0.01 0.01 0.01 0.01 0.01 0.02 0.02 0.04 0.07
0.03 0.03 0.03 0.03 0.03 0.02 0.02 0.02 0.01 0.01 0.01 0.01 0.00 0.01 0.01 0.01 0.02 0.02 0.02 0.02 0.03 0.03 0.03 0.02 0.02 0.02 0.02 0.02 0.02 0.01 0.01 0.01 0.01 0.01 0.00 0.00 0.01 0.01 0.02 0.02 0.02 0.02 0.04
0.03 0.03 0.03 0.03 0.03 0.03 0.03 0.02 0.02 0.01 0.01 0.01 0.00 0.01 0.01 0.01 0.01 0.02 0.02 0.02 0.02 0.03 0.03 0.02 0.02 0.02 0.02 0.01 0.01 0.02 0.01 0.01 0.01 0.01 0.00 0.00 0.01 0.02 0.01 0.01 0.01 0.02 0.03
0.03 0.03 0.03 0.03 0.03 0.03 0.03 0.03 0.03 0.02 0.01 0.00 0.00 0.00 0.00 0.00 0.01 0.01 0.02 0.02 0.02 0.03 0.03 0.03 0.02 0.02 0.03 0.03 0.01 0.01 0.01 0.01 0.01 0.01 0.01 0.01 0.01 0.02 0.02 0.01 0.01 0.01 0.02
0.02 0.02 0.03 0.03 0.03 0.03 0.04 0.04 0.03 0.02 0.01 0.01 0.00 0.00 0.00 0.00 0.00 0.00 0.01 0.01 0.02 0.02 0.03 0.03 0.02 0.02 0.02 0.03 0.02 0.01 0.01 0.02 0.01 0.01 0.02 0.02 0.03 0.03 0.02 0.02 0.01 0.01 0.01
0.02 0.02 0.03 0.03 0.04 0.04 0.04 0.03 0.03 0.02 0.01 0.01 0.01 0.01 0.01 0.00 0.00 0.00 0.00 0.01 0.01 0.02 0.02 0.03 0.03 0.02 0.02 0.03 0.02 0.02 0.01 0.01 0.02 0.02 0.02 0.03 0.03 0.03 0.03 0.02 0.01 0.01 0.01
0.01 0.02 0.02 0.03 0.03 0.04 0.03 0.03 0.03 0.02 0.02 0.01 0.01 0.01 0.01 0.00 0.00 0.01 0.01 0.01 0.01 0.02 0.02 0.03 0.03 0.03 0.02 0.03 0.03 0.02 0.02 0.01 0.01 0.02 0.03 0.04 0.03 0.03 0.03 0.02 0.01 0.01 0.01
0.02 0.02 0.02 0.03 0.02 0.03 0.02 0.02 0.02 0.02 0.02 0.02 0.01 0.01 0.00 0.00 0.00 0.00 0.01 0.01 0.01 0.02 0.03 0.03 0.03 0.03 0.03 0.03 0.03 0.03 0.02 0.02 0.02 0.02 0.03 0.04 0.04 0.03 0.03 0.02 0.02 0.01 0.01
0.03 0.03 0.02 0.01 0.01 0.01 0.02 0.02 0.02 0.02 0.02 0.01 0.01 0.01 0.01 0.00 0.00 0.00 0.00 0.00 0.00 0.01 0.02 0.03 0.03 0.03 0.03 0.03 0.03 0.03 0.03 0.03 0.02 0.02 0.03 0.04 0.03 0.03 0.02 0.02 0.02 0.01 0.01
0.02 0.02 0.02 0.01 0.01 0.01 0.01 0.01 0.02 0.02 0.01 0.01 0.01 0.01 0.01 0.01 0.01 0.01 0.00 0.00 0.00 0.00 0.00 0.01 0.01 0.02 0.02 0.03 0.03 0.04 0.04 0.04 0.03 0.02 0.03 0.03 0.03 0.03 0.02 0.02 0.02 0.01 0.01
0.02 0.01 0.01 0.01 0.01 0.01 0.01 0.01 0.01 0.01 0.01 0.01 0.01 0.01 0.01 0.01 0.01 0.02 0.01 0.01 0.00 0.00 0.00 0.00 0.01 0.01 0.02 0.03 0.03 0.04 0.04 0.04 0.04 0.03 0.03 0.03 0.03 0.02 0.02 0.02 0.01 0.01 0.01
0.02 0.01 0.01 0.01 0.01 0.01 0.01 0.01 0.01 0.02 0.01 0.01 0.01 0.01 0.01 0.01 0.01 0.02 0.02 0.01 0.01 0.00 0.00 0.00 0.00 0.00 0.01 0.01 0.02 0.03 0.04 0.04 0.04 0.04 0.03 0.03 0.03 0.03 0.03 0.02 0.02 0.01 0.01
MSLP
1022.98 1023.31 1023.64 1023.96 1024.29 1024.63 1024.98 1025.32 1025.66 1025.95 1026.20 1026.40 1026.54 1026.63 1026.68 1026.70 1026.71 1026.70 1026.69 1026.66 1026.62 1026.58 1026.55 1026.53 1026.54 1026.56 1026.61 1026.65 1026.69 1026.68 1026.61 1026.48 1026.28 1026.04 1025.77 1025.50 1025.25 1025.02 1024.82 1024.63 1024.43 1024.21 1023.94
1023.12 1023.48 1023.84 1024.22 1024.62 1025.04 1025.47 1025.89 1026.29 1026.65 1026.96 1027.22 1027.42 1027.57 1027.67 1027.74 1027.78 1027.78 1027.75 1027.70 1027.62 1027.53 1027.44 1027.37 1027.31 1027.29 1027.30 1027.32 1027.33 1027.31 1027.25 1027.14 1026.97 1026.75 1026.51 1026.27 1026.05 1025.85 1025.66 1025.50 1025.32 1025.12 1024.87
1023.19 1023.55 1023.95 1024.39 1024.86 1025.36 1025.88 1026.38 1026.87 1027.32 1027.72 1028.06 1028.34 1028.57 1028.74 1028.87 1028.94 1028.97 1028.94 1028.86 1028.74 1028.60 1028.45 1028.30 1028.19 1028.10 1028.05 1028.02 1028.00 1027.96 1027.90 1027.78 1027.63 1027.44 1027.22 1027.01 1026.80 1026.62 1026.45 1026.29 1026.13 1025.95 1025.74
1023.23 1023.60 1024.02 1024.51 1025.05 1025.63 1026.22 1026.81 1027.39 1027.92 1028.41 1028.85 1029.22 1029.54 1029.80 1030.00 1030.13 1030.18 1030.17 1030.09 1029.95 1029.76 1029.56 1029.35 1029.17 1029.02 1028.90 1028.81 1028.74 1028.66 1028.57 1028.45 1028.29 1028.10 1027.90 1027.70 1027.50 1027.32 1027.16 1027.01 1026.86 1026.69 1026.50
1023.30 1023.66 1024.11 1024.63 1025.21 1025.84 1026.49 1027.15 1027.79 1028.40 1028.97 1029.49 1029.96 1030.37 1030.72 1031.00 1031.20 1031.32 1031.35 1031.29 1031.15 1030.96 1030.73 1030.49 1030.25 1030.04 1029.85 1029.70 1029.56 1029.42 1029.29 1029.13 1028.96 1028.77 1028.56 1028.36 1028.16 1027.98 1027.81 1027.65 1027.50 1027.34 1027.17
1023.41 1023.78 1024.23 1024.77 1025.36 1026.01 1026.68 1027.36 1028.03 1028.68 1029.31 1029.89 1030.44 1030.94 1031.38 1031.76 1032.05 1032.25 1032.35 1032.36 1032.27 1032.11 1031.90 1031.65 1031.39 1031.13 1030.88 1030.66 1030.44 1030.24 1030.04 1029.84 1029.63 1029.42 1029.21 1028.99 1028.79 1028.59 1028.41 1028.24 1028.08 1027.92 1027.76
1023.56 1023.93 1024.38 1024.91 1025.50 1026.12 1026.78 1027.44 1028.10 1028.75 1029.39 1030.02 1030.62 1031.19 1031.71 1032.18 1032.58 1032.89 1033.09 1033.20 1033.20 1033.12 1032.96 1032.74 1032.49 1032.21 1031.92 1031.64 1031.35 1031.08 1030.81 1030.55 1030.30 1030.06 1029.83 1029.61 1029.40 1029.19 1029.00 1028.82 1028.64 1028.48 1028.31
1023.71 1024.09 1024.54 1025.04 1025.60 1026.18 1026.78 1027.39 1028.01 1028.62 1029.24 1029.87 1030.49 1031.11 1031.71 1032.27 1032.77 1033.19 1033.51 1033.74 1033.86 1033.89 1033.82 1033.68 1033.46 1033.20 1032.89 1032.56 1032.22 1031.88 1031.54 1031.23 1030.94 1030.67 1030.43 1030.20 1029.99 1029.79 1029.60 1029.41 1029.22 1029.05 1028.88
1023.81 1024.21 1024.66 1025.15 1025.66 1026.19 1026.72 1027.25 1027.79 1028.34 1028.92 1029.52 1030.14 1030.79 1031.43 1032.06 1032.64 1033.16 1033.61 1033.96 1034.22 1034.37 1034.42 1034.37 1034.23 1034.01 1033.71 1033.36 1032.98 1032.58 1032.20 1031.84 1031.51 1031.23 1030.99 1030.78 1030.58 1030.40 1030.22 1030.03 1029.84 1029.65 1029.47
1023.82 1024.26 1024.72 1025.21 1025.69 1026.16 1026.62 1027.07 1027.53 1028.01 1028.53 1029.09 1029.69 1030.33 1030.99 1031.65 1032.29 1032.89 1033.43 1033.89 1034.27 1034.55 1034.72 1034.79 1034.74 1034.58 1034.32 1033.98 1033.58 1033.16 1032.74 1032.35 1032.01 1031.73 1031.50 1031.31 1031.15 1031.00 1030.84 1030.66 1030.47 1030.27 1030.08
1023.74 1024.22 1024.72 1025.21 1025.68 1026.12 1026.53 1026.92 1027.31 1027.72 1028.18 1028.69 1029.26 1029.88 1030.53 1031.19 1031.85 1032.49 1033.08 1033.62 1034.08 1034.47 1034.76 1034.93 1034.98 1034.91 1034.71 1034.41 1034.03 1033.61 1033.18 1032.78 1032.44 1032.17 1031.96 1031.81 1031.69 1031.57 1031.44 1031.29 1031.10 1030.89 1030.68
1023.56 1024.10 1024.65 1025.17 1025.65 1026.08 1026.47 1026.82 1027.17 1027.54 1027.96 1028.43 1028.96 1029.54 1030.16 1030.79 1031.43 1032.06 1032.66 1033.23 1033.75 1034.21 1034.59 1034.86 1035.01 1035.03 1034.91 1034.67 1034.33 1033.94 1033.53 1033.14 1032.81 1032.56 1032.38 1032.26 1032.17 1032.10 1032.00 1031.86 1031.68 1031.47 1031.23
1023.30 1023.91 1024.51 1025.08 1025.59 1026.04 1026.44 1026.79 1027.13 1027.49 1027.89 1028.34 1028.84 1029.38 1029.95 1030.53 1031.12 1031.71 1032.28 1032.84 1033.37 1033.86 1034.30 1034.66 1034.90 1035.01 1034.98 1034.82 1034.54 1034.20 1033.82 1033.46 1033.15 1032.91 1032.76 1032.66 1032.61 1032.55 1032.48 1032.36 1032.18 1031.96 1031.71
1022.99 1023.66 1024.32 1024.94 1025.50 1025.99 1026.41 1026.79 1027.16 1027.54 1027.94 1028.39 1028.87 1029.38 1029.90 1030.43 1030.95 1031.47 1031.99 1032.50 1033.02 1033.52 1033.99 1034.41 1034.73 1034.93 1034.99 1034.92 1034.72 1034.43 1034.10 1033.77 1033.48 1033.26 1033.11 1033.02 1032.98 1032.93 1032.86 1032.75 1032.57 1032.34 1032.08
1022.64 1023.36 1024.07 1024.74 1025.35 1025.88 1026.36 1026.79 1027.20 1027.62 1028.05 1028.52 1029.00 1029.50 1029.99 1030.46 1030.92 1031.37 1031.82 1032.28 1032.75 1033.24 1033.73 1034.18 1034.57 1034.85 1035.00 1035.02 1034.90 1034.68 1034.39 1034.09 1033.82 1033.59 1033.44 1033.34 1033.28 1033.23 1033.15 1033.03 1032.85 1032.62 1032.35
1022.29 1023.03 1023.77 1024.48 1025.13 1025.72 1026.24 1026.73 1027.19 1027.66 1028.15 1028.65 1029.16 1029.66 1030.13 1030.58 1030.99 1031.38 1031.77 1032.17 1032.61 1033.07 1033.56 1034.04 1034.47 1034.82 1035.05 1035.14 1035.10 1034.94 1034.70 1034.42 1034.15 1033.92 1033.74 1033.61 1033.52 1033.45 1033.35 1033.22 1033.03 1032.80 1032.53
1021.94 1022.69 1023.45 1024.18 1024.86 1025.47 1026.04 1026.58 1027.10 1027.62 1028.16 1028.71 1029.26 1029.78 1030.27 1030.71 1031.10 1031.46 1031.81 1032.18 1032.58 1033.02 1033.50 1033.98 1034.45 1034.84 1035.13 1035.28 1035.30 1035.20 1035.00 1034.74 1034.47 1034.22 1034.00 1033.84 1033.71 1033.59 1033.47 1033.31 1033.12 1032.89 1032.63
1021.62 1022.37 1023.12 1023.86 1024.54 1025.18 1025.78 1026.36 1026.92 1027.49 1028.08 1028.68 1029.27 1029.83 1030.35 1030.81 1031.22 1031.57 1031.91 1032.25 1032.63 1033.05 1033.51 1034.00 1034.47 1034.89 1035.21 1035.41 1035.48 1035.41 1035.25 1035.01 1034.73 1034.46 1034.22 1034.01 1033.84 1033.68 1033.53 1033.35 1033.15 1032.93 1032.68
1021.36 1022.09 1022.83 1023.55 1024.25 1024.89 1025.51 1026.10 1026.69 1027.30 1027.93 1028.57 1029.20 1029.81 1030.37 1030.87 1031.30 1031.68 1032.02 1032.37 1032.73 1033.13 1033.58 1034.04 1034.50 1034.92 1035.26 1035.48 1035.58 1035.55 1035.41 1035.19 1034.92 1034.64 1034.38 1034.14 1033.92 1033.73 1033.55 1033.35 1033.15 1032.93 1032.70
1021.17 1021.88 1022.61 1023.32 1024.00 1024.65 1025.27 1025.87 1026.47 1027.10 1027.75 1028.41 1029.08 1029.73 1030.33 1030.87 1031.35 1031.76 1032.13 1032.48 1032.83 1033.22 1033.63 1034.06 1034.50 1034.89 1035.22 1035.45 1035.57 1035.57 1035.46 1035.26 1035.02 1034.74 1034.47 1034.21 1033.98 1033.75 1033.54 1033.33 1033.12 1032.90 1032.67
1021.08 1021.78 1022.49 1023.19 1023.86 1024.50 1025.11 1025.71 1026.31 1026.94 1027.59 1028.26 1028.95 1029.63 1030.26 1030.84 1031.36 1031.80 1032.19 1032.56 1032.91 1033.26 1033.64 1034.03 1034.42 1034.78 1035.09 1035.31 1035.44 1035.46 1035.39 1035.23 1035.02 1034.77 1034.51 1034.25 1034.00 1033.76 1033.54 1033.30 1033.07 1032.84 1032.62
1021.10 1021.78 1022.48 1023.18 1023.84 1024.47 1025.07 1025.65 1026.24 1026.85 1027.48 1028.15 1028.84 1029.52 1030.18 1030.78 1031.33 1031.80 1032.21 1032.58 1032.91 1033.24 1033.58 1033.91 1034.25 1034.57 1034.84 1035.05 1035.19 1035.24 1035.21 1035.10 1034.93 1034.73 1034.50 1034.26 1034.02 1033.78 1033.53 1033.28 1033.03 1032.78 1032.54
1021.22 1021.90 1022.59 1023.27 1023.92 1024.53 1025.12 1025.68 1026.24 1026.82 1027.43 1028.08 1028.74 1029.42 1030.08 1030.69 1031.25 1031.74 1032.16 1032.52 1032.84 1033.14 1033.43 1033.71 1033.99 1034.26 1034.50 1034.71 1034.85 1034.93 1034.95 1034.90 1034.79 1034.65 1034.46 1034.26 1034.03 1033.79 1033.53 1033.26 1032.99 1032.71 1032.44
1021.44 1022.10 1022.77 1023.43 1024.06 1024.65 1025.21 1025.75 1026.28 1026.83 1027.40 1028.01 1028.65 1029.30 1029.95 1030.56 1031.12 1031.61 1032.03 1032.39 1032.69 1032.96 1033.20 1033.44 1033.67 1033.90 1034.11 1034.31 1034.46 1034.58 1034.64 1034.66 1034.62 1034.54 1034.41 1034.24 1034.04 1033.80 1033.54 1033.26 1032.95 1032.65 1032.34
1021.73 1022.35 1022.98 1023.61 1024.21 1024.77 1025.30 1025.81 1026.30 1026.81 1027.35 1027.92 1028.53 1029.15 1029.77 1030.37 1030.92 1031.41 1031.83 1032.18 1032.46 1032.71 1032.92 1033.12 1033.32 1033.51 1033.71 1033.90 1034.07 1034.22 1034.33 1034.40 1034.43 1034.40 1034.33 1034.20 1034.03 1033.81 1033.54 1033.25 1032.92 1032.59 1032.25
1022.05 1022.62 1023.20 1023.78 1024.33 1024.85 1025.34 1025.80 1026.26 1026.74 1027.24 1027.78 1028.34 1028.94 1029.54 1030.12 1030.66 1031.14 1031.56 1031.90 1032.18 1032.42 1032.61 1032.79 1032.96 1033.14 1033.32 1033.51 1033.70 1033.87 1034.02 1034.14 1034.22 1034.25 1034.22 1034.13 1033.98 1033.78 1033.52 1033.22 1032.88 1032.53 1032.17
Thickness
5585 5585 5586 5587 5588 5589 5590 5591 5592 5592 5594 5595 5595 5596 5597 5599 5600 5602 5604 5606 5608 5611 5613 5615 5616 5617 5619 5620 5620 5621 5622 5623 5623 5624 5625 5625 5626 5626 5626 5627 5628 5628 5629
5576 5576 5577 5577 5578 5579 5580 5581 5582 5583 5583 5584 5585 5586 5587 5588 5590 5592 5594 5596 5598 5600 5603 5605 5606 5608 5610 5611 5613 5613 5614 5615 5616 5616 5617 5617 5618 5618 5619 5619 5620 5621 5622
5567 5567 5567 5567 5568 5569 5570 5571 5572 5572 5572 5573 5574 5575 5576 5577 5579 5581 5583 5585 5587 5589 5592 5594 5596 5598 5600 5602 5604 5605 5606 5606 5607 5608 5608 5609 5610 5611 5611 5612 5613 5614 5614
5557 5557 5557 5557 5558 5558 5559 5560 5561 5560 5560 5561 5562 5563 5564 5566 5568 5570 5572 5574 5576 5577 5580 5583 5585 5587 5589 5591 5594 5595 5596 5597 5598 5599 5600 5601 5602 5603 5604 5605 5605 5606 5607
5547 5547 5547 5547 5547 5547 5548 5549 5548 5549 5548 5549 5550 5551 5552 5554 5555 5558 5560 5562 5564 5566 5568 5571 5573 5576 5578 5580 5582 5585 5586 5588 5589 5590 5591 5592 5593 5595 5596 5597 5597 5598 5599
5536 5537 5537 5537 5537 5537 5536 5537 5537 5537 5537 5538 5539 5539 5539 5542 5544 5546 5548 5550 5552 5554 5556 5558 5561 5564 5566 5568 5570 5573 5575 5577 5579 5580 5582 5583 5584 5585 5587 5588 5589 5590 5590
5526 5526 5526 5526 5526 5526 5525 5526 5526 5525 5525 5526 5526 5525 5527 5529 5532 5534 5537 5539 5541 5542 5544 5546 5549 5551 5553 5556 5558 5561 5563 5566 5568 5570 5572 5573 5575 5576 5577 5578 5579 5580 5581
5516 5516 5516 5516 5516 5515 5515 5515 5516 5514 5513 5514 5513 5513 5513 5516 5519 5522 5524 5527 5528 5530 5531 5533 5536 5538 5540 5543 5545 5548 5551 5554 5557 5559 5561 5563 5565 5566 5567 5568 5569 5570 5571
5505 5505 5505 5505 5506 5506 5505 5505 5506 5506 5503 5502 5503 5503 5503 5505 5505 5509 5511 5513 5514 5516 5518 5521 5523 5525 5527 5530 5533 5535 5538 5541 5544 5547 5550 5552 5554 5555 5557 5558 5558 5559 5560
5494 5494 5494 5495 5495 5495 5495 5494 5495 5496 5495 5494 5493 5493 5494 5495 5494 5495 5497 5499 5501 5503 5505 5507 5509 5512 5514 5517 5519 5522 5525 5528 5531 5534 5537 5539 5541 5544 5545 5546 5547 5548 5549
5484 5484 5484 5484 5484 5484 5484 5484 5484 5485 5485 5484 5484 5483 5483 5483 5484 5484 5484 5485 5487 5490 5492 5494 5496 5499 5501 5503 5506 5509 5512 5515 5518 5521 5524 5526 5528 5530 5532 5534 5535 5536 5537
5473 5473 5473 5473 5473 5473 5473 5473 5473 5474 5474 5474 5474 5474 5474 5474 5473 5473 5472 5472 5473 5476 5479 5481 5483 5486 5488 5490 5492 5495 5498 5501 5504 5507 5510 5512 5515 5517 5518 5520 5522 5524 5525
5463 5463 5462 5462 5463 5463 5463 5462 5462 5462 5462 5463 5462 5463 5463 5464 5464 5464 5463 5461 5462 5463 5466 5468 5471 5473 5475 5476 5478 5480 5484 5487 5490 5492 5496 5498 5500 5502 5504 5506 5508 5510 5512
5454 5453 5452 5452 5453 5453 5452 5452 5451 5451 5451 5451 5451 5451 5451 5452 5453 5454 5453 5451 5450 5451 5453 5455 5458 5460 5462 5463 5465 5466 5469 5472 5475 5478 5481 5484 5486 5488 5490 5492 5495 5497 5499
5443 5443 5442 5443 5443 5442 5442 5441 5441 5441 5440 5440 5439 5439 5439 5440 5441 5441 5442 5442 5441 5440 5442 5443 5444 5447 5448 5449 5451 5452 5455 5457 5461 5464 5467 5469 5472 5474 5476 5479 5481 5484 5486
5433 5432 5432 5431 5432 5432 5431 5430 5430 5429 5429 5428 5428 5427 5427 5427 5428 5428 5429 5430 5430 5429 5429 5430 5431 5433 5434 5436 5437 5438 5441 5444 5446 5450 5453 5456 5458 5461 5463 5465 5468 5470 5473
5422 5421 5421 5420 5420 5420 5419 5419 5419 5418 5417 5416 5416 5416 5415 5415 5415 5415 5416 5416 5416 5416 5415 5417 5418 5420 5421 5423 5424 5425 5428 5430 5433 5437 5440 5442 5445 5447 5450 5452 5454 5456 5459
5411 5410 5410 5409 5409 5408 5408 5408 5407 5406 5405 5405 5404 5404 5403 5403 5403 5403 5403 5403 5403 5404 5403 5403 5404 5405 5407 5409 5411 5412 5414 5417 5420 5423 5426 5429 5431 5433 5435 5438 5440 5442 5444
5399 5398 5398 5398 5397 5397 5396 5396 5395 5394 5393 5393 5392 5392 5392 5391 5391 5390 5390 5390 5391 5391 5391 5391 5391 5392 5393 5395 5397 5399 5401 5403 5406 5409 5411 5414 5417 5418 5420 5423 5425 5427 5429
5387 5386 5386 5386 5385 5385 5384 5383 5383 5382 5381 5381 5380 5380 5380 5380 5380 5379 5379 5379 5379 5378 5378 5377 5378 5379 5380 5380 5382 5384 5387 5389 5391 5394 5396 5399 5401 5403 5405 5407 5410 5412 5414
5376 5375 5374 5373 5373 5373 5372 5371 5371 5370 5369 5369 5368 5368 5368 5368 5369 5369 5369 5368 5367 5366 5365 5365 5366 5366 5366 5366 5367 5369 5371 5374 5376 5378 5381 5384 5386 5389 5389 5391 5394 5396 5398
5364 5363 5363 5362 5361 5362 5362 5361 5360 5358 5358 5357 5357 5356 5356 5356 5357 5357 5358 5358 5357 5355 5354 5353 5353 5353 5353 5353 5353 5354 5355 5358 5361 5364 5364 5368 5370 5372 5374 5376 5378 5381 5383
5352 5352 5351 5350 5350 5350 5350 5350 5349 5347 5346 5345 5345 5344 5344 5344 5345 5345 5345 5345 5344 5344 5344 5343 5342 5341 5341 5341 5340 5341 5340 5341 5344 5347 5347 5352 5354 5356 5359 5361 5363 5366 5368
5339 5339 5339 5338 5338 5338 5338 5338 5337 5335 5334 5334 5333 5333 5332 5332 5333 5333 5333 5332 5331 5331 5331 5331 5330 5330 5329 5327 5327 5327 5326 5328 5330 5330 5330 5333 5338 5342 5345 5347 5349 5351 5354
5327 5326 5326 5326 5326 5326 5327 5327 5326 5323 5323 5322 5322 5322 5321 5321 5322 5322 5321 5320 5319 5319 5318 5318 5318 5317 5316 5314 5312 5312 5312 5313 5315 5318 5316 5317 5322 5327 5331 5334 5335 5337 5338
5315 5314 5314 5313 5314 5314 5315 5315 5314 5313 5312 5311 5310 5310 5310 5310 5310 5310 5308 5307 5307 5307 5306 5305 5305 5304 5302 5300 5299 5298 5298 5298 5300 5302 5304 5303 5306 5308 5316 5322 5322 5322 5323